| time (UTC) | temp F | wind direction | speed knots | gust knots | rain 1hr in | rain 24hr in | rain mn in | humidity % | barometer mb |
| 20260505231003 | 64 | 335 | 3.5 | 8.7 | 0.00 | 0.00 | 0.00 | 46 | 1010.6 |
| 20260505230503 | 63 | 323 | 3.5 | 9.6 | 0.00 | 0.00 | 0.00 | 45 | 1010.5 |
| 20260505230003 | 63 | 305 | 4.3 | 12.2 | 0.00 | 0.00 | 0.00 | 47 | 1010.7 |
| 20260505225503 | 63 | 318 | 3.5 | 12.2 | 0.00 | 0.00 | 0.00 | 46 | 1010.8 |
| 20260505225003 | 63 | 333 | 3.5 | 8.7 | 0.00 | 0.00 | 0.00 | 46 | 1010.8 |
| 20260505224503 | 63 | 315 | 4.3 | 11.3 | 0.00 | 0.00 | 0.00 | 46 | 1010.9 |
| 20260505224003 | 64 | 308 | 2.6 | 11.3 | 0.00 | 0.00 | 0.00 | 45 | 1010.8 |
| 20260505223503 | 62 | 311 | 4.3 | 9.6 | 0.00 | 0.00 | 0.00 | 45 | 1010.9 |
| 20260505223004 | 62 | 278 | 5.2 | 9.6 | 0.00 | 0.00 | 0.00 | 46 | 1011.2 |
| 20260505222503 | 62 | 244 | 5.2 | 12.2 | 0.00 | 0.00 | 0.00 | 47 | 1011.3 |
| 20260505222003 | 62 | 253 | 6.1 | 12.2 | 0.00 | 0.00 | 0.00 | 48 | 1011.2 |
| 20260505221503 | 62 | 244 | 7.0 | 12.2 | 0.00 | 0.00 | 0.00 | 45 | 1011.5 |
| 20260505221003 | 62 | 236 | 7.0 | 12.2 | 0.00 | 0.00 | 0.00 | 46 | 1011.6 |
| 20260505220524 | 61 | 233 | 7.0 | 11.3 | 0.00 | 0.00 | 0.00 | 48 | 1011.4 |
| 20260505220003 | 61 | 227 | 7.8 | 13.0 | 0.00 | 0.00 | 0.00 | 47 | 1011.3 |
| 20260505215503 | 60 | 226 | 8.7 | 13.0 | 0.00 | 0.00 | 0.00 | 50 | 1011.5 |
| 20260505215003 | 59 | 240 | 8.7 | 19.1 | 0.00 | 0.00 | 0.00 | 58 | 1012.0 |
| 20260505214503 | 58 | 246 | 11.3 | 20.0 | 0.00 | 0.00 | 0.00 | 59 | 1012.0 |
| 20260505214003 | 59 | 243 | 8.7 | 20.0 | 0.00 | 0.00 | 0.00 | 57 | 1012.0 |
| 20260505213524 | 61 | 241 | 7.0 | 12.2 | 0.00 | 0.00 | 0.00 | 52 | 1012.0 |
| 20260505213003 | 60 | 241 | 5.2 | 12.2 | 0.00 | 0.00 | 0.00 | 52 | 1011.9 |
| 20260505212503 | 62 | 279 | 2.6 | 8.7 | 0.00 | 0.00 | 0.00 | 49 | 1012.0 |
| 20260505212003 | 62 | 326 | 2.6 | 7.0 | 0.00 | 0.00 | 0.00 | 47 | 1012.0 |
| 20260505211503 | 62 | 315 | 3.5 | 7.0 | 0.00 | 0.00 | 0.00 | 45 | 1011.9 |
| 20260505211003 | 62 | 333 | 5.2 | 13.0 | 0.00 | 0.00 | 0.00 | 45 | 1011.6 |
| 20260505210503 | 62 | 340 | 5.2 | 13.0 | 0.00 | 0.00 | 0.00 | 46 | 1011.8 |
| 20260505210003 | 63 | 321 | 3.5 | 8.7 | 0.00 | 0.00 | 0.00 | 44 | 1012.0 |
| 20260505205524 | 62 | 322 | 1.7 | 6.1 | 0.00 | 0.00 | 0.00 | 45 | 1012.0 |
| 20260505205003 | 64 | 355 | 1.7 | 7.0 | 0.00 | 0.00 | 0.00 | 44 | 1011.6 |
| 20260505204503 | 63 | 356 | 2.6 | 7.8 | 0.00 | 0.00 | 0.00 | 45 | 1012.2 |
| 20260505204003 | 64 | 360 | 2.6 | 7.8 | 0.00 | 0.00 | 0.00 | 44 | 1012.1 |
| 20260505203503 | 64 | 11 | 1.7 | 7.8 | 0.00 | 0.00 | 0.00 | 45 | 1012.2 |
| 20260505203003 | 64 | 12 | 1.7 | 7.8 | 0.00 | 0.00 | 0.00 | 43 | 1012.2 |
| 20260505202524 | 62 | 6 | 2.6 | 7.8 | 0.00 | 0.00 | 0.00 | 48 | 1012.3 |
| 20260505202003 | 62 | 2 | 1.7 | 7.0 | 0.00 | 0.00 | 0.00 | 46 | 1012.2 |
| 20260505201524 | 62 | 2 | 2.6 | 7.8 | 0.00 | 0.00 | 0.00 | 46 | 1012.3 |
| 20260505201003 | 61 | 1 | 3.5 | 9.6 | 0.00 | 0.00 | 0.00 | 47 | 1012.5 |
| 20260505200503 | 62 | 349 | 2.6 | 9.6 | 0.00 | 0.00 | 0.00 | 47 | 1012.3 |
| 20260505200003 | 62 | 316 | 2.6 | 7.0 | 0.00 | 0.00 | 0.00 | 47 | 1012.3 |
| 20260505195524 | 61 | 324 | 3.5 | 8.7 | 0.00 | 0.00 | 0.00 | 48 | 1012.6 |
| 20260505195003 | 60 | 344 | 3.5 | 8.7 | 0.00 | 0.00 | 0.00 | 48 | 1012.6 |
| 20260505194503 | 60 | 350 | 3.5 | 11.3 | 0.00 | 0.00 | 0.00 | 48 | 1012.6 |
| 20260505194003 | 60 | 335 | 5.2 | 11.3 | 0.00 | 0.00 | 0.00 | 48 | 1012.6 |
| 20260505193504 | 59 | 320 | 5.2 | 9.6 | 0.00 | 0.00 | 0.00 | 49 | 1013.0 |
| 20260505193003 | 59 | 326 | 5.2 | 9.6 | 0.00 | 0.00 | 0.00 | 50 | 1013.0 |
| 20260505192504 | 58 | 323 | 5.2 | 8.7 | 0.00 | 0.00 | 0.00 | 50 | 1012.9 |
| 20260505192003 | 59 | 269 | 4.3 | 7.0 | 0.00 | 0.00 | 0.00 | 50 | 1012.9 |
| 20260505191503 | 58 | 206 | 4.3 | 7.0 | 0.00 | 0.00 | 0.00 | 55 | 1013.0 |
| 20260505191003 | 58 | 199 | 5.2 | 7.8 | 0.00 | 0.00 | 0.00 | 59 | 1013.2 |
| 20260505190503 | 57 | 189 | 6.1 | 9.6 | 0.00 | 0.00 | 0.00 | 58 | 1013.2 |
| 20260505190003 | 58 | 182 | 6.1 | 9.6 | 0.00 | 0.00 | 0.00 | 57 | 1013.4 |
| 20260505185524 | 58 | 188 | 6.1 | 11.3 | 0.00 | 0.00 | 0.00 | 57 | 1013.2 |
| 20260505185003 | 57 | 206 | 6.1 | 11.3 | 0.00 | 0.00 | 0.00 | 57 | 1013.4 |
| 20260505184503 | 58 | 268 | 4.3 | 7.8 | 0.00 | 0.00 | 0.00 | 55 | 1013.2 |
| 20260505184003 | 59 | 293 | 5.2 | 11.3 | 0.00 | 0.00 | 0.00 | 51 | 1013.0 |
| 20260505183503 | 58 | 293 | 5.2 | 11.3 | 0.00 | 0.00 | 0.00 | 51 | 1013.2 |
| 20260505183024 | 59 | 311 | 5.2 | 8.7 | 0.00 | 0.00 | 0.00 | 51 | 1013.3 |
| 20260505182503 | 59 | 310 | 6.1 | 11.3 | 0.00 | 0.00 | 0.00 | 50 | 1013.0 |
| 20260505182004 | 59 | 302 | 6.1 | 11.3 | 0.00 | 0.00 | 0.00 | 52 | 1013.3 |
| 20260505181503 | 59 | 302 | 2.6 | 7.8 | 0.00 | 0.00 | 0.00 | 50 | 1013.2 |
| 20260505181003 | 60 | 206 | 1.7 | 7.0 | 0.00 | 0.00 | 0.00 | 47 | 1012.9 |
| 20260505180504 | 59 | 202 | 2.6 | 7.0 | 0.00 | 0.00 | 0.00 | 48 | 1013.0 |
| 20260505180003 | 58 | 214 | 2.6 | 6.1 | 0.00 | 0.00 | 0.00 | 50 | 1013.0 |
| 20260505175503 | 59 | 218 | 3.5 | 7.0 | 0.00 | 0.00 | 0.00 | 48 | 1013.2 |
| 20260505175003 | 59 | 207 | 3.5 | 7.0 | 0.00 | 0.00 | 0.00 | 46 | 1013.3 |
| 20260505174504 | 60 | 239 | 2.6 | 6.1 | 0.00 | 0.00 | 0.00 | 46 | 1012.9 |
| 20260505174003 | 59 | 260 | 2.6 | 6.1 | 0.00 | 0.00 | 0.00 | 46 | 1013.0 |
| 20260505173524 | 60 | 258 | 3.5 | 6.1 | 0.00 | 0.00 | 0.00 | 46 | 1013.0 |
| 20260505173003 | 59 | 223 | 3.5 | 8.7 | 0.00 | 0.00 | 0.00 | 46 | 1012.9 |
| 20260505172524 | 60 | 206 | 3.5 | 8.7 | 0.00 | 0.00 | 0.00 | 46 | 1013.0 |
| 20260505172003 | 60 | 258 | 1.7 | 6.1 | 0.00 | 0.00 | 0.00 | 45 | 1012.7 |
| 20260505171503 | 60 | 320 | 1.7 | 6.1 | 0.00 | 0.00 | 0.00 | 45 | 1012.9 |
| 20260505171003 | 59 | 309 | 2.6 | 6.1 | 0.00 | 0.00 | 0.00 | 46 | 1013.0 |
| 20260505170503 | 58 | 321 | 3.5 | 7.8 | 0.00 | 0.00 | 0.00 | 47 | 1013.2 |
| 20260505170003 | 58 | 329 | 5.2 | 9.6 | 0.00 | 0.00 | 0.00 | 48 | 1013.2 |
| 20260505165503 | 58 | 337 | 4.3 | 9.6 | 0.00 | 0.00 | 0.00 | 46 | 1013.2 |
| 20260505165003 | 58 | 359 | 3.5 | 8.7 | 0.00 | 0.00 | 0.00 | 46 | 1013.3 |
| 20260505164503 | 59 | 1 | 3.5 | 8.7 | 0.00 | 0.00 | 0.00 | 47 | 1013.3 |
| 20260505164004 | 58 | 359 | 4.3 | 8.7 | 0.00 | 0.00 | 0.00 | 47 | 1012.9 |
| 20260505163503 | 58 | 1 | 5.2 | 12.2 | 0.00 | 0.00 | 0.00 | 49 | 1012.9 |
| 20260505163003 | 57 | 2 | 5.2 | 12.2 | 0.00 | 0.00 | 0.00 | 49 | 1013.2 |
| 20260505162503 | 57 | 4 | 4.3 | 8.7 | 0.00 | 0.00 | 0.00 | 48 | 1013.4 |
| 20260505162003 | 57 | 5 | 5.2 | 11.3 | 0.00 | 0.00 | 0.00 | 50 | 1013.5 |
| 20260505161503 | 56 | 4 | 6.1 | 13.0 | 0.00 | 0.00 | 0.00 | 51 | 1013.2 |
| 20260505161003 | 55 | 3 | 7.0 | 13.0 | 0.00 | 0.00 | 0.00 | 54 | 1013.2 |
| 20260505160503 | 55 | 3 | 6.1 | 13.0 | 0.00 | 0.00 | 0.00 | 56 | 1013.3 |
| 20260505153024 | 55 | 3 | 8.7 | 18.2 | 0.00 | 0.00 | 0.00 | 55 | 1013.5 |
| 20260505152503 | 55 | 1 | 8.7 | 18.2 | 0.00 | 0.00 | 0.00 | 58 | 1013.9 |
| 20260505152003 | 55 | 356 | 8.7 | 18.2 | 0.00 | 0.00 | 0.00 | 59 | 1014.1 |
| 20260505151503 | 55 | 355 | 7.8 | 14.8 | 0.00 | 0.00 | 0.00 | 62 | 1014.1 |
| 20260505151003 | 55 | 357 | 7.8 | 14.8 | 0.00 | 0.00 | 0.00 | 64 | 1014.1 |
| 20260505150503 | 55 | 355 | 7.0 | 13.0 | 0.00 | 0.00 | 0.00 | 64 | 1014.1 |
| 20260505140504 | 55 | 5 | 7.0 | 13.0 | 0.00 | 0.00 | 0.00 | 58 | 1013.7 |
| 20260505125003 | 59 | 297 | 3.5 | 6.1 | 0.00 | 0.00 | 0.00 | 39 | 1013.0 |
| 20260505124503 | 59 | 302 | 4.3 | 7.0 | 0.00 | 0.00 | 0.00 | 39 | 1012.7 |
| 20260505124003 | 59 | 303 | 5.2 | 7.0 | 0.00 | 0.00 | 0.00 | 39 | 1012.6 |
| 20260505123504 | 59 | 296 | 5.2 | 7.0 | 0.00 | 0.00 | 0.00 | 39 | 1012.7 |
| 20260505123003 | 59 | 289 | 5.2 | 8.7 | 0.00 | 0.00 | 0.00 | 39 | 1012.8 |
| 20260505122503 | 59 | 283 | 5.2 | 8.7 | 0.00 | 0.00 | 0.00 | 38 | 1012.8 |
| 20260505122024 | 59 | 276 | 5.2 | 7.8 | 0.00 | 0.00 | 0.00 | 38 | 1012.7 |
| 20260505121503 | 59 | 274 | 6.1 | 8.7 | 0.00 | 0.00 | 0.00 | 38 | 1012.7 |
| 20260505121024 | 59 | 272 | 5.2 | 8.7 | 0.00 | 0.00 | 0.00 | 38 | 1012.7 |
| 20260505120503 | 59 | 276 | 5.2 | 8.7 | 0.00 | 0.00 | 0.00 | 38 | 1012.6 |
| 20260505120004 | 59 | 291 | 4.3 | 7.8 | 0.00 | 0.00 | 0.00 | 38 | 1012.8 |
| 20260505115524 | 59 | 300 | 4.3 | 7.0 | 0.00 | 0.00 | 0.00 | 38 | 1012.7 |
| 20260505115003 | 59 | 292 | 5.2 | 8.7 | 0.00 | 0.00 | 0.00 | 38 | 1012.7 |
| 20260505114503 | 59 | 283 | 6.1 | 8.7 | 0.00 | 0.00 | 0.00 | 38 | 1012.9 |
| 20260505114003 | 59 | 279 | 6.1 | 8.7 | 0.00 | 0.00 | 0.00 | 39 | 1012.5 |
| 20260505113503 | 59 | 275 | 5.2 | 8.7 | 0.00 | 0.00 | 0.00 | 39 | 1012.3 |
| 20260505113003 | 59 | 278 | 6.1 | 9.6 | 0.00 | 0.00 | 0.00 | 39 | 1012.3 |
| 20260505112503 | 59 | 278 | 6.1 | 9.6 | 0.00 | 0.00 | 0.00 | 39 | 1012.2 |
| 20260505112003 | 59 | 277 | 6.1 | 8.7 | 0.00 | 0.00 | 0.00 | 38 | 1012.5 |
| 20260505111524 | 59 | 283 | 6.1 | 8.7 | 0.00 | 0.00 | 0.00 | 37 | 1012.3 |
| 20260505111003 | 59 | 288 | 7.0 | 8.7 | 0.00 | 0.00 | 0.00 | 37 | 1012.2 |
| 20260505110504 | 60 | 284 | 7.0 | 9.6 | 0.00 | 0.00 | 0.00 | 37 | 1012.3 |
| 20260505102003 | 59 | 279 | 4.3 | 7.0 | 0.00 | 0.00 | 0.00 | 34 | 1012.7 |
| 20260505101503 | 60 | 274 | 3.5 | 7.0 | 0.00 | 0.00 | 0.00 | 34 | 1012.9 |
| 20260505101003 | 59 | 267 | 2.6 | 3.5 | 0.00 | 0.00 | 0.00 | 34 | 1012.8 |
| 20260505100503 | 59 | 269 | 2.6 | 3.5 | 0.00 | 0.00 | 0.00 | 35 | 1012.7 |
| 20260505100003 | 59 | 276 | 2.6 | 3.5 | 0.00 | 0.00 | 0.00 | 35 | 1012.7 |
| 20260505095503 | 59 | 281 | 2.6 | 3.5 | 0.00 | 0.00 | 0.00 | 36 | 1012.7 |
| 20260505095003 | 60 | 280 | 2.6 | 3.5 | 0.00 | 0.00 | 0.00 | 35 | 1012.7 |
| 20260505094503 | 60 | 273 | 2.6 | 5.2 | 0.00 | 0.00 | 0.00 | 34 | 1012.5 |
| 20260505094003 | 60 | 272 | 2.6 | 5.2 | 0.00 | 0.00 | 0.00 | 34 | 1012.5 |
| 20260505093503 | 60 | 275 | 2.6 | 3.5 | 0.00 | 0.00 | 0.00 | 34 | 1012.6 |
| 20260505093003 | 60 | 276 | 2.6 | 2.6 | 0.00 | 0.00 | 0.00 | 34 | 1012.5 |
| 20260505092503 | 60 | 276 | 1.7 | 2.6 | 0.00 | 0.00 | 0.00 | 34 | 1012.6 |
| 20260505092003 | 60 | 276 | 1.7 | 1.7 | 0.00 | 0.00 | 0.00 | 35 | 1012.5 |
| 20260505091503 | 60 | 276 | 1.7 | 1.7 | 0.00 | 0.00 | 0.00 | 34 | 1012.7 |
| 20260505091003 | 60 | 276 | 0.9 | 1.7 | 0.00 | 0.00 | 0.00 | 34 | 1012.9 |
| 20260505090503 | 60 | 277 | 1.7 | 2.6 | 0.00 | 0.00 | 0.00 | 34 | 1012.7 |
| 20260505090004 | 60 | 278 | 1.7 | 2.6 | 0.00 | 0.00 | 0.00 | 34 | 1012.9 |
| 20260505085503 | 60 | 281 | 1.7 | 2.6 | 0.00 | 0.00 | 0.00 | 34 | 1012.9 |
| 20260505085003 | 60 | 284 | 1.7 | 2.6 | 0.00 | 0.00 | 0.00 | 34 | 1013.0 |
| 20260505084504 | 61 | 287 | 1.7 | 2.6 | 0.00 | 0.00 | 0.00 | 33 | 1013.0 |
| 20260505084003 | 61 | 289 | 1.7 | 1.7 | 0.00 | 0.00 | 0.00 | 33 | 1013.2 |
| 20260505083524 | 62 | 293 | 1.7 | 2.6 | 0.00 | 0.00 | 0.00 | 32 | 1013.2 |
| 20260505083003 | 62 | 302 | 2.6 | 7.8 | 0.00 | 0.00 | 0.00 | 32 | 1013.3 |
| 20260505082504 | 62 | 317 | 3.5 | 7.8 | 0.00 | 0.00 | 0.00 | 32 | 1013.3 |
| 20260505082003 | 62 | 323 | 5.2 | 8.7 | 0.00 | 0.00 | 0.00 | 31 | 1013.2 |
| 20260505081524 | 62 | 318 | 6.1 | 13.0 | 0.00 | 0.00 | 0.00 | 31 | 1013.3 |
| 20260505081003 | 63 | 294 | 7.0 | 13.0 | 0.00 | 0.00 | 0.00 | 31 | 1013.0 |
| 20260505080503 | 63 | 282 | 7.8 | 12.2 | 0.00 | 0.00 | 0.00 | 30 | 1013.3 |
| 20260505080003 | 63 | 284 | 7.8 | 12.2 | 0.00 | 0.00 | 0.00 | 30 | 1013.2 |
| 20260505075504 | 63 | 286 | 7.0 | 11.3 | 0.00 | 0.00 | 0.00 | 30 | 1013.3 |
| 20260505075003 | 63 | 285 | 6.1 | 9.6 | 0.00 | 0.00 | 0.00 | 31 | 1013.4 |
| 20260505074503 | 63 | 273 | 6.1 | 11.3 | 0.00 | 0.00 | 0.00 | 31 | 1013.5 |
| 20260505074024 | 63 | 268 | 7.0 | 11.3 | 0.00 | 0.00 | 0.00 | 31 | 1013.4 |
| 20260505073503 | 63 | 267 | 7.0 | 11.3 | 0.00 | 0.00 | 0.00 | 31 | 1013.3 |
| 20260505073003 | 63 | 270 | 6.1 | 9.6 | 0.00 | 0.00 | 0.00 | 31 | 1013.0 |
| 20260505072524 | 63 | 272 | 7.0 | 9.6 | 0.00 | 0.00 | 0.00 | 31 | 1013.3 |
| 20260505072024 | 64 | 263 | 7.0 | 9.6 | 0.00 | 0.00 | 0.00 | 31 | 1013.0 |
| 20260505071503 | 64 | 253 | 7.0 | 9.6 | 0.00 | 0.00 | 0.00 | 30 | 1013.3 |
| 20260505071003 | 64 | 246 | 7.0 | 11.3 | 0.00 | 0.00 | 0.00 | 30 | 1013.4 |
| 20260505070503 | 64 | 244 | 7.8 | 11.3 | 0.00 | 0.00 | 0.00 | 30 | 1013.2 |
| 20260505070003 | 64 | 248 | 7.8 | 13.0 | 0.00 | 0.00 | 0.00 | 30 | 1012.9 |
| 20260505065504 | 64 | 253 | 7.8 | 13.0 | 0.00 | 0.00 | 0.00 | 29 | 1012.8 |
| 20260505065003 | 64 | 254 | 7.8 | 12.2 | 0.00 | 0.00 | 0.00 | 29 | 1012.7 |
| 20260505064504 | 64 | 250 | 7.8 | 13.0 | 0.00 | 0.00 | 0.00 | 29 | 1012.8 |
| 20260505064003 | 65 | 252 | 7.8 | 13.0 | 0.00 | 0.00 | 0.00 | 28 | 1012.8 |
| 20260505063503 | 64 | 258 | 7.8 | 13.0 | 0.00 | 0.00 | 0.00 | 28 | 1012.8 |
| 20260505063003 | 65 | 260 | 7.8 | 13.0 | 0.00 | 0.00 | 0.00 | 28 | 1012.6 |
| 20260505062503 | 65 | 256 | 7.0 | 12.2 | 0.00 | 0.00 | 0.00 | 28 | 1012.6 |
| 20260505062004 | 65 | 255 | 6.1 | 11.3 | 0.00 | 0.00 | 0.00 | 27 | 1012.8 |
| 20260505061503 | 65 | 257 | 7.0 | 12.2 | 0.00 | 0.00 | 0.00 | 27 | 1012.7 |
| 20260505061003 | 65 | 261 | 7.8 | 12.2 | 0.00 | 0.00 | 0.00 | 26 | 1012.7 |
| 20260505060503 | 65 | 267 | 8.7 | 13.9 | 0.00 | 0.00 | 0.00 | 26 | 1012.7 |
| 20260505060024 | 66 | 272 | 9.6 | 13.9 | 0.00 | 0.00 | 0.00 | 26 | 1012.3 |
| 20260505055503 | 66 | 275 | 10.4 | 14.8 | 0.00 | 0.00 | 0.00 | 26 | 1012.5 |
| 20260505055025 | 66 | 271 | 11.3 | 15.6 | 0.00 | 0.00 | 0.00 | 25 | 1012.5 |
| 20260505054524 | 66 | 269 | 10.4 | 15.6 | 0.00 | 0.00 | 0.00 | 25 | 1012.5 |
| 20260505054003 | 66 | 272 | 10.4 | 14.8 | 0.00 | 0.00 | 0.00 | 25 | 1012.3 |
| 20260505053524 | 67 | 269 | 10.4 | 18.2 | 0.00 | 0.00 | 0.00 | 25 | 1012.1 |
| 20260505053003 | 67 | 264 | 10.4 | 18.2 | 0.00 | 0.00 | 0.00 | 25 | 1012.3 |
| 20260505052503 | 67 | 262 | 9.6 | 13.9 | 0.00 | 0.00 | 0.00 | 24 | 1012.2 |
| 20260505052003 | 67 | 263 | 7.8 | 13.9 | 0.00 | 0.00 | 0.00 | 24 | 1012.0 |
| 20260505051503 | 67 | 267 | 7.0 | 11.3 | 0.00 | 0.00 | 0.00 | 24 | 1012.6 |
| 20260505051003 | 67 | 264 | 7.0 | 12.2 | 0.00 | 0.00 | 0.00 | 24 | 1012.5 |
| 20260505050524 | 67 | 258 | 7.0 | 12.2 | 0.00 | 0.00 | 0.00 | 24 | 1012.3 |
| 20260505041503 | 68 | 270 | 4.3 | 7.8 | 0.00 | 0.00 | 0.00 | 24 | 1012.0 |
| 20260505041024 | 68 | 269 | 4.3 | 7.0 | 0.00 | 0.00 | 0.00 | 24 | 1012.0 |
| 20260505040503 | 69 | 272 | 4.3 | 7.8 | 0.00 | 0.00 | 0.00 | 24 | 1012.0 |
| 20260505040004 | 69 | 278 | 5.2 | 7.8 | 0.00 | 0.00 | 0.00 | 23 | 1012.1 |
| 20260505035503 | 69 | 286 | 6.1 | 9.6 | 0.00 | 0.00 | 0.00 | 23 | 1012.1 |
| 20260505035024 | 69 | 287 | 6.1 | 9.6 | 0.00 | 0.00 | 0.00 | 23 | 1012.1 |
| 20260505034503 | 69 | 291 | 6.1 | 8.7 | 0.00 | 0.00 | 0.00 | 23 | 1011.9 |
| 20260505034003 | 69 | 295 | 6.1 | 8.7 | 0.00 | 0.00 | 0.00 | 23 | 1011.9 |
| 20260505033504 | 69 | 294 | 6.1 | 8.7 | 0.00 | 0.00 | 0.00 | 23 | 1011.9 |
| 20260505033003 | 70 | 300 | 6.1 | 8.7 | 0.00 | 0.00 | 0.00 | 23 | 1012.0 |
| 20260505032503 | 70 | 303 | 6.1 | 9.6 | 0.00 | 0.00 | 0.00 | 23 | 1011.9 |
| 20260505032003 | 70 | 308 | 7.0 | 11.3 | 0.00 | 0.00 | 0.00 | 23 | 1011.5 |
| 20260505031503 | 70 | 313 | 7.0 | 11.3 | 0.00 | 0.00 | 0.00 | 22 | 1011.3 |
| 20260505031003 | 70 | 318 | 7.8 | 12.2 | 0.00 | 0.00 | 0.00 | 23 | 1011.5 |
| 20260505030503 | 70 | 325 | 9.6 | 13.0 | 0.00 | 0.00 | 0.00 | 22 | 1011.5 |
| 20260505030003 | 70 | 330 | 10.4 | 16.5 | 0.00 | 0.00 | 0.00 | 22 | 1011.2 |
| 20260505025524 | 71 | 331 | 10.4 | 16.5 | 0.00 | 0.00 | 0.00 | 22 | 1011.2 |
| 20260505025003 | 71 | 315 | 10.4 | 16.5 | 0.00 | 0.00 | 0.00 | 22 | 1011.0 |
| 20260505024503 | 71 | 297 | 11.3 | 16.5 | 0.00 | 0.00 | 0.00 | 21 | 1011.2 |
| 20260505024024 | 71 | 291 | 12.2 | 16.5 | 0.00 | 0.00 | 0.00 | 21 | 1010.9 |
| 20260505023503 | 72 | 288 | 11.3 | 18.2 | 0.00 | 0.00 | 0.00 | 21 | 1010.6 |
| 20260505023003 | 72 | 284 | 9.6 | 18.2 | 0.00 | 0.00 | 0.00 | 20 | 1011.2 |
| 20260505022503 | 71 | 281 | 9.6 | 16.5 | 0.00 | 0.00 | 0.00 | 20 | 1010.8 |
| 20260505022003 | 72 | 282 | 10.4 | 16.5 | 0.00 | 0.00 | 0.00 | 20 | 1011.0 |
| 20260505021504 | 72 | 290 | 10.4 | 15.6 | 0.00 | 0.00 | 0.00 | 20 | 1010.8 |
| 20260505021024 | 72 | 289 | 11.3 | 18.2 | 0.00 | 0.00 | 0.00 | 20 | 1010.8 |
| 20260505020524 | 72 | 283 | 11.3 | 19.1 | 0.00 | 0.00 | 0.00 | 19 | 1010.8 |
| 20260505020003 | 72 | 278 | 11.3 | 19.1 | 0.00 | 0.00 | 0.00 | 19 | 1010.5 |
| 20260505015503 | 73 | 279 | 11.3 | 16.5 | 0.00 | 0.00 | 0.00 | 19 | 1010.5 |
| 20260505015003 | 73 | 281 | 9.6 | 16.5 | 0.00 | 0.00 | 0.00 | 19 | 1010.5 |
| 20260505014504 | 73 | 281 | 8.7 | 15.6 | 0.00 | 0.00 | 0.00 | 20 | 1010.5 |
| 20260505014003 | 73 | 280 | 7.8 | 13.9 | 0.00 | 0.00 | 0.00 | 20 | 1010.5 |
| 20260505013503 | 73 | 280 | 6.1 | 11.3 | 0.00 | 0.00 | 0.00 | 20 | 1010.3 |
| 20260505013025 | 73 | 282 | 7.0 | 12.2 | 0.00 | 0.00 | 0.00 | 20 | 1010.3 |
| 20260505012503 | 74 | 286 | 7.8 | 12.2 | 0.00 | 0.00 | 0.00 | 20 | 1010.1 |
| 20260505012003 | 74 | 286 | 8.7 | 13.9 | 0.00 | 0.00 | 0.00 | 20 | 1010.1 |
| 20260505011504 | 74 | 287 | 9.6 | 14.8 | 0.00 | 0.00 | 0.00 | 19 | 1010.2 |
| 20260505011003 | 74 | 288 | 9.6 | 14.8 | 0.00 | 0.00 | 0.00 | 19 | 1010.1 |
| 20260505010524 | 74 | 282 | 8.7 | 13.9 | 0.00 | 0.00 | 0.00 | 19 | 1010.1 |
| 20260505010003 | 74 | 282 | 9.6 | 14.8 | 0.00 | 0.00 | 0.00 | 19 | 1010.2 |
| 20260505005503 | 74 | 282 | 10.4 | 16.5 | 0.00 | 0.00 | 0.00 | 19 | 1010.2 |
| 20260505005004 | 74 | 281 | 9.6 | 16.5 | 0.00 | 0.00 | 0.00 | 19 | 1010.3 |
| 20260505004503 | 75 | 282 | 8.7 | 13.9 | 0.00 | 0.00 | 0.00 | 18 | 1010.0 |
| 20260505004003 | 75 | 283 | 9.6 | 15.6 | 0.00 | 0.00 | 0.00 | 18 | 1010.1 |
| 20260505003503 | 75 | 284 | 10.4 | 16.5 | 0.00 | 0.00 | 0.00 | 18 | 1010.2 |
| 20260505003003 | 75 | 284 | 10.4 | 16.5 | 0.00 | 0.00 | 0.00 | 17 | 1010.2 |
| 20260505002503 | 75 | 283 | 9.6 | 16.5 | 0.00 | 0.00 | 0.00 | 17 | 1010.2 |
| 20260505002024 | 75 | 281 | 11.3 | 19.1 | 0.00 | 0.00 | 0.00 | 17 | 1010.7 |
| 20260505001503 | 75 | 282 | 13.0 | 20.0 | 0.00 | 0.00 | 0.00 | 17 | 1010.3 |
| 20260505001003 | 76 | 281 | 13.0 | 20.0 | 0.00 | 0.00 | 0.00 | 16 | 1010.1 |
| 20260505000503 | 76 | 274 | 12.2 | 20.0 | 0.00 | 0.00 | 0.00 | 16 | 1010.3 |
| 20260505000003 | 76 | 270 | 11.3 | 18.2 | 0.00 | 0.00 | 0.00 | 16 | 1010.2 |
| 20260504235525 | 76 | 273 | 10.4 | 19.1 | 0.00 | 0.00 | 0.00 | 16 | 1010.1 |
| 20260504235003 | 75 | 273 | 10.4 | 19.1 | 0.00 | 0.00 | 0.00 | 16 | 1010.3 |
| 20260504234503 | 76 | 278 | 10.4 | 15.6 | 0.00 | 0.00 | 0.00 | 15 | 1010.3 |
| 20260504234024 | 76 | 279 | 9.6 | 15.6 | 0.00 | 0.00 | 0.00 | 15 | 1010.5 |
| 20260504233524 | 76 | 273 | 9.6 | 14.8 | 0.00 | 0.00 | 0.00 | 15 | 1010.6 |
| 20260504233003 | 76 | 281 | 10.4 | 14.8 | 0.00 | 0.00 | 0.00 | 15 | 1010.7 |
| 20260504232503 | 75 | 283 | 10.4 | 16.5 | 0.00 | 0.00 | 0.00 | 15 | 1010.7 |
| 20260504232003 | 76 | 275 | 11.3 | 16.5 | 0.00 | 0.00 | 0.00 | 15 | 1010.7 |
| 20260504231503 | 76 | 275 | 10.4 | 16.5 | 0.00 | 0.00 | 0.00 | 14 | 1010.7 |